sat.trackr.live / text

‹ back to catalog

COSMOS 2540

NORAD 44517 · 2019-057A

PAYLOAD ACTIVE UNKNOWN

§ Identity

Operator
Country
CIS
Launch date
2019-08-30
Launch site
PLMSC
Launch vehicle
Mass (kg)
RCS (m²)

External: N2YO · Heavens-Above · Gunter

§ Orbital elements

Epoch: 2026-05-25T03:52:35.862816Z

Period
103.90 min
Inclination
99.2056°
Eccentricity
0.0014844
Mean motion
13.85943270 rev/d
Perigee alt
932.0 km
Apogee alt
953.7 km
Semi-major
7,321.0 km
B*
8.4715e-5
RAAN
157.1103°
Arg perigee
230.2911°
Mean anomaly
129.6937°
Rev number
34,068

§ Raw data

COSMOS 25401 44517U 19057A   26145.16152619  .00000054  00000+0  84715-4 0  99992 44517  99.2056 157.1103 0014844 230.2911 129.6937 13.85943270340681

JSON: /api/v1/satellites/44517 · /tle

For live sub-satellite position, see the globe view (requires WebGL).

§ Visibility from observer

Set your observer location to see the next 7 days of passes ≥ 10°. The values pass through the URL so the page stays shareable.

No JS? Fill the form by hand. The geolocation button needs JavaScript.